Date String (YYYY-MM-DD hh:mm:ss) UTC,Instrument flags,Ambient pressure (hPa),Sample flow (lpm),Bypass flow (lpm),Sample temperature (°C),Ambient temperature (°C),ASC tube jacket temperature (°C),LED temperature (°C),Box temperature (°C),Sample RH (%),Span deviation,Mass concentration (μg/m³),Mass concentration (μg/m³),Mass concentration (μg/m³)
DateTimeUTC,F1_M11,P_M11,Q1_M11,Q2_M11,T1_M11,T2_M11,T3_M11,T4_M11,T5_M11,U1_M11,ZSPAN_M11,X2_M11,X0_M11,X1_M11
2022-01-03 22:00:00,,0823.0,5.00,0.00,25.7,25.1,00.0,34.6,27.5,07.6,0000.0,0007.31,0010.71,0007.11
2022-01-03 22:01:00,,0823.0,5.00,0.00,25.7,25.1,00.0,34.6,27.5,07.7,0000.0,0007.50,0010.88,0007.31
2022-01-03 22:02:00,,0823.0,5.00,0.00,25.7,25.1,00.0,34.6,27.5,08.1,0000.0,0007.66,0011.07,0007.47
2022-01-03 22:03:00,,0822.9,4.99,0.00,25.7,25.1,00.0,34.6,27.5,08.7,0000.0,0008.06,0011.51,0007.85
2022-01-03 22:04:00,,0823.0,5.02,0.00,25.7,25.1,00.0,34.6,27.4,08.4,0000.0,0008.29,0012.71,0008.08
2022-01-03 22:05:00,,0822.9,4.99,0.00,25.7,25.1,00.0,34.6,27.4,08.3,0000.0,0008.34,0012.59,0008.13
2022-01-03 22:06:00,,0823.0,5.00,0.00,25.7,25.0,00.0,34.6,27.4,08.0,0000.0,0008.31,0012.92,0008.06
2022-01-03 22:07:00,,0823.0,5.00,0.00,25.7,25.0,00.0,34.6,27.4,07.6,0000.0,0008.16,0012.89,0007.91
2022-01-03 22:08:00,,0823.0,4.98,0.00,25.6,24.9,00.0,34.6,27.4,07.4,0000.0,0007.99,0012.71,0007.72
2022-01-03 22:09:00,,0823.0,5.01,0.00,25.6,24.8,00.0,34.6,27.3,07.0,0000.0,0007.64,0012.24,0007.39
2022-01-03 22:10:00,,0823.0,4.99,0.00,25.6,24.8,00.0,34.6,27.3,06.8,0000.0,0007.22,0011.15,0006.99
2022-01-03 22:11:00,,0823.0,5.01,0.00,25.5,24.7,00.0,34.6,27.2,06.3,0000.0,0006.83,0010.70,0006.59
2022-01-03 22:12:00,,0823.0,4.98,0.00,25.5,24.7,00.0,34.6,27.2,05.9,0000.0,0006.40,0010.28,0006.19
2022-01-03 22:13:00,,0823.0,5.01,0.00,25.5,24.6,00.0,34.6,27.1,05.8,0000.0,0005.97,0009.81,0005.74
2022-01-03 22:14:00,,0823.2,4.99,0.00,25.4,24.6,00.0,34.5,27.1,06.1,0000.0,0005.29,0009.13,0005.08
2022-01-03 22:15:00,,0823.1,5.00,0.00,25.4,24.6,00.0,34.5,26.9,09.3,0000.0,0005.12,0008.51,0004.89
2022-01-03 22:16:00,,0823.1,5.00,0.00,25.3,24.5,00.0,34.5,26.9,08.7,0000.0,0005.14,0008.65,0004.88
2022-01-03 22:17:00,,0823.1,5.00,0.00,25.3,24.5,00.0,34.5,26.9,08.5,0000.0,0005.07,0008.26,0004.82
2022-01-03 22:18:00,,0823.1,5.00,0.00,25.3,24.5,00.0,34.4,26.8,09.8,0000.0,0005.23,0009.03,0004.97
2022-01-03 22:19:00,,0823.1,4.99,0.00,25.3,24.5,00.0,34.4,26.8,09.5,0000.0,0005.52,0009.39,0005.23
2022-01-03 22:20:00,,0823.0,5.00,0.00,25.2,24.4,00.0,34.4,26.8,09.1,0000.0,0005.82,0009.69,0005.51
2022-01-03 22:21:00,,0822.9,5.01,0.00,25.2,24.4,00.0,34.4,26.8,07.5,0000.0,0006.02,0009.89,0005.73
2022-01-03 22:22:00,,0822.9,5.00,0.00,25.2,24.3,00.0,34.4,26.8,06.4,0000.0,0006.07,0009.94,0005.75
2022-01-03 22:23:00,,0822.9,5.01,0.00,25.1,24.3,00.0,34.3,26.7,06.2,0000.0,0006.07,0009.94,0005.76
2022-01-03 22:24:00,,0823.0,4.98,0.00,25.1,24.3,00.0,34.3,26.7,06.3,0000.0,0006.10,0009.96,0005.79
2022-01-03 22:25:00,,0823.1,5.01,0.00,25.1,24.3,00.0,34.3,26.7,07.5,0000.0,0006.32,0010.13,0006.00
2022-01-03 22:26:00,,0823.1,4.99,0.00,25.1,24.2,00.0,34.3,26.6,08.0,0000.0,0006.22,0009.61,0005.92
2022-01-03 22:27:00,,0823.1,5.01,0.00,25.0,24.1,00.0,34.2,26.6,07.3,0000.0,0005.78,0009.31,0005.52
2022-01-03 22:28:00,,0823.0,4.99,0.00,25.0,24.1,00.0,34.2,26.6,08.6,0000.0,0005.67,0009.45,0005.41
2022-01-03 22:29:00,,0823.0,5.01,0.00,24.9,24.1,00.0,34.2,26.5,08.7,0000.0,0005.54,0008.97,0005.28
2022-01-03 22:30:00,,0823.0,4.99,0.00,24.9,24.1,00.0,34.1,26.5,07.2,0000.0,0005.13,0008.51,0004.90
2022-01-03 22:31:00,,0823.0,5.02,0.00,24.9,24.1,00.0,34.1,26.5,06.8,0000.0,0004.68,0008.07,0004.45
2022-01-03 22:32:00,,0823.0,4.98,0.00,24.8,24.0,00.0,34.1,26.4,06.7,0000.0,0004.39,0007.80,0004.17
2022-01-03 22:33:00,,0822.9,5.01,0.00,24.8,24.0,00.0,34.1,26.4,06.5,0000.0,0004.32,0007.71,0004.12
2022-01-03 22:34:00,,0823.0,5.00,0.00,24.8,24.0,00.0,34.0,26.4,06.5,0000.0,0004.38,0007.77,0004.16
2022-01-03 22:35:00,,0823.0,4.99,0.00,24.8,23.9,00.0,34.0,26.4,05.8,0000.0,0004.35,0007.73,0004.14
2022-01-03 22:36:00,,0822.9,5.02,0.00,24.7,23.9,00.0,34.0,26.3,05.9,0000.0,0004.13,0007.49,0003.94
2022-01-03 22:37:00,,0822.9,4.99,0.00,24.7,23.9,00.0,33.9,26.3,06.2,0000.0,0003.79,0006.85,0003.62
2022-01-03 22:38:00,,0822.9,5.00,0.00,24.7,23.9,00.0,33.9,26.3,05.9,0000.0,0003.53,0005.78,0003.38
2022-01-03 22:39:00,,0822.8,5.00,0.00,24.7,24.0,00.0,33.9,26.3,06.1,0000.0,0003.15,0004.57,0002.96
2022-01-03 22:40:00,,0822.9,4.99,0.00,24.7,24.0,00.0,33.9,26.3,06.3,0000.0,0002.31,0002.83,0002.12
2022-01-03 22:41:00,,0822.8,5.02,0.00,24.7,23.9,00.0,33.9,26.3,06.5,0000.0,0001.85,0002.30,0001.66
2022-01-03 22:42:00,,0822.7,4.99,0.00,24.7,23.9,00.0,33.8,26.3,06.6,0000.0,0001.64,0002.01,0001.46
2022-01-03 22:43:00,,0822.8,5.00,0.00,24.6,23.9,00.0,33.8,26.3,06.5,0000.0,0001.53,0001.89,0001.34
2022-01-03 22:44:00,,0822.8,4.99,0.00,24.6,23.8,00.0,33.8,26.2,06.5,0000.0,0001.50,0001.92,0001.29
2022-01-03 22:45:00,,0822.7,5.01,0.00,24.6,23.8,00.0,33.8,26.2,06.6,0000.0,0001.41,0001.83,0001.22
2022-01-03 22:46:00,,0822.7,4.99,0.00,24.6,23.8,00.0,33.8,26.2,06.5,0000.0,0001.44,0001.89,0001.24
2022-01-03 22:47:00,,0822.6,5.01,0.00,24.6,23.7,00.0,33.7,26.2,06.4,0000.0,0001.51,0001.98,0001.30
2022-01-03 22:48:00,,0822.7,5.00,0.00,24.5,23.7,00.0,33.7,26.1,06.5,0000.0,0001.55,0002.01,0001.35
2022-01-03 22:49:00,,0822.6,5.00,0.00,24.5,23.7,00.0,33.7,26.1,06.2,0000.0,0001.53,0001.95,0001.34
2022-01-03 22:50:00,,0822.6,4.98,0.00,24.5,23.7,00.0,33.7,26.1,06.5,0000.0,0001.54,0001.93,0001.37
2022-01-03 22:51:00,,0822.6,5.01,0.00,24.5,23.7,00.0,33.7,26.1,06.3,0000.0,0001.55,0001.94,0001.40
2022-01-03 22:52:00,,0822.6,4.99,0.00,24.5,23.7,00.0,33.6,26.1,06.5,0000.0,0001.51,0001.88,0001.38
2022-01-03 22:53:00,,0822.5,5.01,0.00,24.5,23.7,00.0,33.6,26.1,06.0,0000.0,0001.48,0001.86,0001.34
2022-01-03 22:54:00,,0822.5,4.99,0.00,24.4,23.7,00.0,33.6,26.0,06.1,0000.0,0001.37,0001.70,0001.25
2022-01-03 22:55:00,,0822.4,4.99,0.00,24.4,23.7,00.0,33.6,26.0,06.1,0000.0,0001.26,0001.51,0001.16
2022-01-03 22:56:00,,0822.4,5.01,0.00,24.4,23.7,00.0,33.6,26.1,06.2,0000.0,0001.14,0001.35,0001.04
2022-01-03 22:57:00,,0822.4,5.00,0.00,24.4,23.7,00.0,33.6,26.1,06.1,0000.0,0001.02,0001.19,0000.94
2022-01-03 22:58:00,,0822.4,5.00,0.00,24.4,23.7,00.0,33.5,26.0,06.3,0000.0,0000.92,0001.06,0000.85
2022-01-03 22:59:00,,0822.3,5.00,0.00,24.4,23.7,00.0,33.5,26.1,06.7,0000.0,0000.83,0000.98,0000.75
